This is the latest recevied weather packets stored in our database for station/object W8UFO-13. If no packets are shown the sender has not sent any weather packets the latest 10 day(s).
| Time | Temp. | Humidity | Pressure | Rain* | Wind** | Luminosity | Snow |
|---|---|---|---|---|---|---|---|
| 1777952957 | 17.78° C | 65% | 1014.9 hPa | 0 mm | - | - | - |
| 1777952657 | 17.78° C | 65% | 1014.8 hPa | 0 mm | - | - | - |
| 1777952357 | 18.33° C | 65% | 1014.8 hPa | 0 mm | - | - | - |
| 1777952057 | 18.33° C | 64% | 1014.8 hPa | 0 mm | - | - | - |
| 1777951757 | 17.78° C | 65% | 1014.8 hPa | 0 mm | - | - | - |
| 1777951457 | 17.78° C | 66% | 1014.8 hPa | 0 mm | - | - | - |
| 1777951157 | 17.78° C | 66% | 1014.9 hPa | 0 mm | - | - | - |
| 1777950857 | 17.78° C | 67% | 1014.9 hPa | 0 mm | - | - | - |
| 1777950557 | 17.78° C | 66% | 1014.7 hPa | 0 mm | - | - | - |
| 1777950258 | 17.78° C | 66% | 1014.7 hPa | 0 mm | - | - | - |
| 1777949957 | 18.33° C | 66% | 1014.9 hPa | 0 mm | - | - | - |
| 1777949657 | 18.33° C | 64% | 1014.9 hPa | 0 mm | - | - | - |
| 1777949357 | 18.33° C | 65% | 1015 hPa | 0 mm | - | - | - |
| 1777949057 | 18.33° C | 64% | 1014.9 hPa | 0 mm | - | - | - |
| 1777948757 | 18.89° C | 64% | 1014.9 hPa | 0 mm | - | - | - |
| 1777948457 | 18.89° C | 63% | 1014.9 hPa | 0 mm | - | - | - |
| 1777948157 | 19.44° C | 62% | 1014.9 hPa | 0 mm | - | - | - |
| 1777947857 | 19.44° C | 61% | 1015 hPa | 0 mm | - | - | - |
| 1777947557 | 20° C | 60% | 1014.9 hPa | 0 mm | - | - | - |
| 1777947257 | 20° C | 59% | 1014.9 hPa | 0 mm | - | - | - |
| 1777946957 | 20° C | 59% | 1015 hPa | 0 mm | - | - | - |
| 1777946657 | 20.56° C | 58% | 1014.8 hPa | 0 mm | - | - | - |
| 1777946357 | 20.56° C | 58% | 1014.7 hPa | 0 mm | - | - | - |
| 1777946057 | 20.56° C | 58% | 1014.7 hPa | 0 mm | - | - | - |
| 1777945757 | 20.56° C | 58% | 1014.8 hPa | 0 mm | - | - | - |
* Rain latest hour (hover to see other rain measurements)
** Current wind speed in m/s (hover to see current wind gust speed)